Regional Weather Roundup
Issued by NWS

Home | Current Version | Previous Version | Text Only | Print | Product List | Glossary On
Versions: 1 2 3 4 5 6 7 8 9 10 11 12 13 14 15 16 17 18 19 20 21 22 23 24 25 26 27 28 29 30 31 32 33 34 35 36 37 38 39 40 41 42 43 44 45 46 47 48 49 50
494
ASUS45 KABQ 290810
RWRNM
NEW MEXICO REGIONAL WEATHER ROUNDUP
NATIONAL WEATHER SERVICE ALBUQUERQUE NM
200 AM MDT SAT APR 29 2017

NOTE: "FAIR" MEANS FEW OR NO CLOUDS BELOW 12,000 FEET AGL WITH NO
       SIGNIFICANT WEATHER OR OBSTRUCTIONS TO VISION.

      THIS PRODUCT IS RELEASED AS TWO VERSIONS.  ONE VERSION NEAR
      THE TOP OF THE HOUR CONTAINING PRELIMINARY DATA FROM ALBUQUERQUE
      AND OTHER STATIONS.  A FINAL VERSION WITH ADDITIONAL DATA IS
      ISSUED ABOUT 10 MINUTES AFTER THE HOUR.

NMZ501-503-504-510>518-290900-
NORTHWEST PLATEAU/NORTHCENTRAL MOUNTAINS

CITY           SKY/WX    TMP DP  RH WIND       PRES   REMARKS
FARMINGTON     FAIR      33  25  72 W13       29.81S WCI  24
LOS ALAMOS     MOCLDY    34  29  83 S7        29.82R WCI  28
SANTA FE       MOCLDY    36  36 100 S6        29.79S WCI  31
TAOS             N/A     36  27  69 E6        29.77F WCI  31
ANGEL FIRE     CLOUDY    29  22  75 NE15      29.82F WCI  18

$$
NMZ402-403-502-505>509-290900-
WESTCENTRAL MOUNTAINS/SOUTHWEST MOUNTAINS

CITY           SKY/WX    TMP DP  RH WIND       PRES   REMARKS
GALLUP         FAIR      29  23  78 CALM      29.84F
GRANTS         MOCLDY    28  28  99 CALM      29.84F
SILVER CITY    CLOUDY    49  19  30 W10       29.77S

$$
NMZ407-409-411-412-290900-
SOUTHERN DESERTS

CITY           SKY/WX    TMP DP  RH WIND       PRES   REMARKS
DEMING         CLOUDY    49  39  68 NE20G26   29.76R
LAS CRUCES     RAIN      44  42  93 N16G24    29.78F
HOLLOMAN AFB   LGT RAIN  43  43 100 N17       29.81F
ALAMOGORDO     LGT RAIN  45  45 100 N16       29.77R
T OR C         LGT RAIN  42  36  79 N9        29.83R

$$
NMZ519>523-290900-
CENTRAL VALLEYS/CENTRAL HIGHLANDS

CITY           SKY/WX    TMP DP  RH WIND       PRES   REMARKS
ALBUQUERQUE    LGT RAIN  37  35  92 W7        29.80F WCI  32
MORIARTY ARPT  CLOUDY    35  34  99 CALM      29.80F
CLINES CORNERS CLOUDY    32  30  92 E9        29.80F WCI  24
BELEN          MOCLDY    37  35  91 W8        29.80F WCI  31
SOCORRO        CLOUDY    40  32  74 NW7       29.85R WCI  35

$$
NMZ524>526-539-540-290900-
SOUTHCENTRAL MOUNTAINS

CITY           SKY/WX    TMP DP  RH WIND       PRES   REMARKS
RUIDOSO        MIX PCPN  32  32 100 NW9       29.83R WCI  24

$$
NMZ527>531-290900-
NORTHEAST HIGHLANDS/NORTHEAST PLAINS

CITY           SKY/WX    TMP DP  RH WIND       PRES   REMARKS
LAS VEGAS      FLURRIES  34  33  96 N14       29.82F WCI  25
RATON          FLURRIES  32  23  69 N30G38    29.86R WCI  18
CLAYTON        RAIN      38  38 100 N13       29.80F FOG     WCI  30

$$
NMZ532>537-290900-
EASTCENTRAL PLAINS

CITY           SKY/WX    TMP DP  RH WIND       PRES   REMARKS
SANTA ROSA     RAIN      39  38  97 N12       29.83R WCI  32
TUCUMCARI      RAIN      44  41  89 N14       29.80R FOG
CANNON AFB     CLOUDY    45  45 100 N22       29.74R
CLOVIS AIRPORT MOCLDY    43  37  81 N22       29.74R

$$
NMZ028-029-538-290900-
SOUTHEAST PLAINS

CITY           SKY/WX    TMP DP  RH WIND       PRES   REMARKS
ROSWELL        CLOUDY    50  40  68 NW20G26     N/A
ARTESIA        FAIR      50  39  66 NW18      29.73F
CARLSBAD       FAIR      53  40  61 NW22G28   29.70S
HOBBS          FAIR      50  45  81 N20G25    29.65F


$$




USA.gov is the U.S. government's official web portal to all federal, state and local government web resources and services.